Theta_e
308 310 311 311 311 311 311 311 311 311 311 312 312 312 311 312 312 312 312 313 314 313 315 313 313 315 315 313 313 314 315 328 346 345 344 341 338 334 331 327 325 328 326 326
308 310 310 309 309 309 310 310 311 313 312 311 311 311 311 311 312 312 312 312 313 312 312 312 313 315 317 317 314 314 315 315 328 341 345 345 345 342 339 337 334 331 330 331
308 309 308 309 310 311 311 312 313 311 311 311 311 309 311 310 310 311 312 312 311 311 311 315 316 315 316 316 316 315 315 315 315 319 335 343 345 345 346 345 344 339 337 335
308 308 309 309 310 313 312 313 312 311 311 310 310 307 310 310 310 311 312 314 314 313 315 316 316 314 314 314 314 312 313 316 317 317 324 333 337 341 343 346 347 344 342 342
309 309 309 309 310 312 311 312 312 311 311 311 309 310 310 310 310 312 311 313 315 315 315 315 315 313 313 314 314 315 312 314 316 317 317 326 334 335 339 342 344 344 343 342
309 307 308 309 312 311 311 311 309 309 311 310 309 310 310 310 311 312 310 311 313 316 315 315 314 313 313 314 314 315 316 314 317 317 316 321 327 333 336 338 340 342 342 346
309 308 309 311 311 311 310 311 311 310 309 308 310 310 310 310 311 311 310 311 313 315 315 314 314 314 313 314 315 315 315 317 319 317 317 319 321 322 335 338 338 339 340 342
312 311 312 313 311 311 311 311 312 311 309 308 309 310 310 310 310 311 311 313 314 313 314 314 313 313 314 315 315 315 316 317 318 318 320 324 328 329 333 336 339 338 338 340
312 310 310 311 311 311 311 312 310 311 311 312 310 310 310 310 311 311 312 314 313 313 315 314 313 312 313 317 317 317 317 317 318 318 320 323 326 330 330 334 339 339 338 339
313 315 312 311 310 309 311 310 312 313 313 312 310 310 310 310 310 311 313 312 312 313 315 316 314 313 314 316 317 319 319 319 318 319 321 323 326 331 332 332 337 337 338 337
313 315 313 312 312 312 311 312 313 313 314 313 312 310 311 311 311 312 311 312 312 314 315 316 314 313 316 316 317 319 322 322 321 322 322 324 327 330 333 334 336 337 339 339
313 314 315 312 311 310 310 312 313 316 315 315 315 313 311 311 311 311 312 312 312 314 314 314 315 316 317 316 315 316 319 322 325 325 324 325 330 332 332 333 334 337 339 339
314 316 316 312 310 310 312 311 312 312 313 313 315 314 311 311 312 313 313 313 313 314 314 313 313 314 316 316 316 315 317 319 320 325 325 326 336 334 332 332 335 338 339 339
311 314 314 313 311 311 312 312 312 313 317 314 314 314 313 313 314 314 314 314 314 313 313 312 312 314 314 313 313 314 316 318 318 320 325 326 335 335 332 333 337 339 339 340
311 312 312 312 312 312 312 313 313 313 314 315 313 313 313 313 314 314 314 314 313 313 313 312 313 314 313 311 311 312 314 316 317 319 322 326 334 334 331 334 337 339 340 341
312 313 313 313 313 313 313 312 311 311 312 313 314 315 313 314 314 314 313 314 314 313 312 312 312 313 312 311 311 311 312 315 315 319 320 326 333 335 333 336 338 340 341 342
311 312 312 311 309 311 312 312 312 312 312 313 316 314 314 314 313 314 314 313 313 312 311 311 310 311 311 311 310 310 311 313 316 318 321 326 335 336 336 337 338 340 341 343
308 310 312 312 311 314 311 312 314 314 314 313 314 314 314 314 314 313 313 313 312 311 310 310 310 310 309 308 309 309 311 314 317 319 325 327 338 336 337 339 340 339 340 344
308 310 312 314 315 313 312 312 315 315 314 314 314 314 314 313 313 312 311 310 309 308 308 308 307 308 308 309 309 310 311 314 317 320 326 328 337 337 338 339 339 339 339 336
306 307 313 316 318 315 313 315 313 313 317 314 314 313 313 313 313 311 308 307 307 307 307 308 308 308 308 309 309 311 313 315 319 320 326 328 336 336 337 336 336 336 335 331
313 311 312 312 312 314 313 314 313 318 315 314 313 313 312 310 310 309 307 307 306 307 308 308 308 309 309 309 311 313 314 317 320 322 326 331 335 337 336 334 332 331 330 329
313 314 315 313 315 316 314 313 313 313 312 312 312 311 310 308 307 307 307 306 307 308 308 308 309 310 310 311 313 314 317 318 321 324 326 335 335 334 332 331 330 329 327 327
313 314 315 315 315 311 310 311 311 312 313 312 311 310 308 307 307 307 306 308 307 308 308 309 310 311 312 312 314 316 318 321 324 325 329 333 333 331 330 329 328 327 326 325
308 308 311 310 311 311 310 310 311 312 312 311 310 307 306 306 307 307 307 307 307 308 309 309 311 313 315 314 315 316 320 325 325 325 332 331 330 330 329 329 329 328 327 327
308 309 310 311 310 309 311 311 311 310 309 308 307 306 305 306 307 305 306 307 308 309 310 310 312 314 315 316 316 317 323 325 325 331 331 330 329 330 329 330 330 329 329 328
309 310 310 313 309 309 310 311 309 309 308 307 306 305 305 305 305 306 307 308 309 309 309 311 312 314 316 318 318 318 326 327 331 331 330 329 325 324 325 323 322 325 325 326
Wind_Speed
1 5 7 6 10 3 2 3 4 3 1 9 10 13 12 13 11 10 9 8 6 6 8 10 16 18 16 18 18 16 11 5 18 16 15 19 25 30 34 39 40 35 34 34
3 7 5 4 3 6 6 5 5 5 5 7 13 17 15 14 9 8 6 5 9 7 6 13 15 14 17 18 20 19 16 11 5 14 17 18 13 19 25 24 32 37 34 34
6 1 4 3 4 6 5 6 4 4 5 7 9 13 1 4 6 2 5 4 5 7 8 8 9 15 17 19 21 23 22 20 14 8 13 16 17 16 14 21 27 40 39 39
5 1 6 3 5 7 7 8 4 4 5 7 2 6 6 3 5 6 8 6 7 6 4 7 10 14 15 17 22 26 24 24 18 12 10 19 22 20 24 25 24 33 39 37
0 5 7 7 4 6 1 5 2 4 9 5 6 5 1 6 6 7 7 5 7 6 4 6 8 13 19 19 19 21 26 26 25 19 13 14 22 24 27 24 25 30 36 34
12 2 4 4 4 3 5 3 0 1 2 5 2 4 4 6 8 5 8 8 10 8 10 10 11 11 14 17 18 18 19 25 25 23 19 17 21 24 24 24 26 25 25 22
5 5 1 3 5 3 4 0 4 3 4 3 2 7 9 7 11 10 13 14 10 11 14 14 14 14 15 17 19 19 16 21 23 24 24 23 26 28 27 29 27 25 24 22
6 8 7 4 5 5 4 3 3 5 4 6 5 8 2 4 6 10 12 10 8 12 12 12 14 16 16 19 19 20 18 18 19 21 23 22 23 23 27 30 29 30 29 27
3 6 1 3 1 2 4 6 2 5 2 6 6 7 9 9 7 4 3 3 10 13 15 12 11 13 16 19 19 19 20 20 21 22 24 26 25 25 26 29 29 30 28 23
6 5 1 3 2 1 5 9 3 2 4 6 6 12 9 8 10 6 7 9 12 14 15 15 9 11 13 15 19 22 17 18 21 23 23 24 24 23 26 27 27 27 23 23
3 4 2 4 7 14 6 6 2 2 3 4 6 5 3 5 7 11 11 10 14 15 13 14 12 13 14 16 18 20 21 18 20 22 24 25 26 24 24 25 24 25 21 20
9 5 10 11 3 4 5 10 11 7 6 5 4 10 4 9 5 6 14 18 17 14 15 14 12 16 17 16 19 21 22 21 22 25 26 25 26 25 24 25 24 22 21 19
4 4 3 3 2 1 5 8 10 9 4 13 10 10 4 6 15 20 20 17 15 14 15 16 16 15 16 18 20 23 24 23 24 26 28 27 27 25 27 26 23 23 22 22
1 5 9 10 9 1 5 6 10 14 10 14 20 32 23 25 24 19 18 14 12 14 14 17 17 15 17 21 24 25 25 25 23 27 28 28 30 26 27 25 22 23 23 21
5 12 14 19 19 17 19 18 19 20 21 19 22 26 24 23 20 18 13 12 15 15 16 17 16 14 16 22 27 28 26 29 22 27 29 30 31 24 23 22 23 22 21 20
3 6 4 13 11 14 20 22 25 25 24 24 26 28 28 23 18 12 13 13 15 18 21 19 16 17 17 24 28 31 30 31 25 28 29 29 30 21 23 23 22 20 21 22
4 5 5 12 7 8 13 25 25 22 19 17 17 18 15 13 14 13 12 16 20 22 22 20 20 19 21 27 30 30 32 31 26 27 30 28 23 20 23 24 25 24 25 24
13 7 3 5 6 8 5 3 6 8 14 16 18 18 17 14 13 16 17 20 21 21 23 22 20 21 30 32 29 30 32 27 26 28 28 29 19 20 23 25 26 27 26 25
16 9 4 4 6 13 16 3 1 4 11 8 12 8 12 20 23 20 14 18 20 25 25 23 30 31 30 28 28 28 31 24 25 27 25 26 18 19 23 24 26 26 27 25
5 6 4 3 5 4 2 2 3 1 11 2 8 15 23 20 14 14 21 22 26 26 26 23 32 32 30 29 27 24 26 26 25 25 24 22 17 20 21 26 27 26 27 29
4 3 10 10 6 7 3 3 2 5 4 12 18 20 13 13 19 25 26 22 22 22 25 30 27 27 28 28 24 23 25 25 25 25 23 23 20 20 22 25 28 30 30 32
2 3 3 3 5 7 4 3 5 11 19 20 19 17 21 24 27 26 21 23 21 21 22 27 20 22 25 25 22 23 21 29 27 23 22 19 21 24 29 29 28 30 33 29
3 4 2 5 5 6 8 13 17 16 19 20 15 19 21 27 23 20 22 20 20 20 17 24 20 22 23 24 21 21 25 25 24 17 19 21 24 26 30 33 30 30 29 25
4 2 5 6 6 12 14 18 19 18 19 21 17 20 24 23 20 22 19 18 18 17 16 21 20 17 16 23 22 23 27 25 17 19 19 23 25 26 26 28 29 27 24 21
9 6 7 12 17 13 13 16 18 20 19 21 19 24 22 20 18 19 18 19 17 16 17 21 15 15 20 23 21 23 24 19 17 22 22 24 25 27 28 26 23 24 22 25
2 3 2 4 13 14 17 21 23 19 24 24 22 18 18 17 18 18 17 18 16 16 20 17 21 20 25 24 20 22 15 15 16 19 21 23 23 22 27 24 24 18 20 20
Wind_Direction
63 220 225 246 234 240 240 242 245 272 186 324 299 298 292 286 281 250 226 250 266 266 290 322 325 326 332 331 341 349 356 271 227 228 226 232 233 233 236 240 244 249 248 247
221 236 211 237 184 193 203 211 225 290 290 312 308 303 291 285 273 267 272 244 283 289 291 311 316 324 325 323 327 328 331 334 280 237 236 228 232 238 239 237 239 239 243 245
235 271 186 215 167 172 186 204 190 265 310 274 305 290 168 319 271 226 321 310 264 275 295 313 320 330 332 330 328 322 322 317 310 280 248 242 234 237 237 237 237 244 247 242
249 189 191 186 226 205 209 199 202 239 296 299 329 292 263 240 334 149 17 352 330 313 307 314 326 331 332 326 327 322 316 311 304 299 261 237 238 233 230 237 239 236 239 235
309 194 193 232 230 189 158 158 223 274 287 281 237 250 262 213 256 212 328 325 338 345 329 315 315 324 324 328 324 322 316 307 303 303 287 254 246 242 243 237 242 239 242 238
263 223 238 246 125 169 136 167 120 149 244 252 184 257 185 209 217 240 313 323 316 331 343 328 319 318 320 325 323 318 310 304 304 303 298 273 253 244 242 240 236 236 231 227
238 219 223 199 164 140 167 202 290 239 211 282 130 285 260 241 240 257 293 302 315 336 329 328 322 326 324 326 321 318 306 296 301 303 297 283 266 256 238 239 238 228 225 221
250 243 180 181 227 196 171 209 252 288 268 295 230 248 231 183 265 284 297 311 318 338 334 319 314 316 315 323 324 317 306 297 297 294 287 278 265 251 241 235 236 230 225 225
273 235 302 78 7 222 147 215 356 260 298 274 246 261 261 260 230 282 341 341 348 342 334 328 314 303 306 317 318 318 305 301 297 293 289 283 273 253 240 236 235 233 226 222
338 276 18 42 88 91 255 146 183 178 258 257 255 273 255 278 299 306 312 326 339 340 332 330 316 307 305 309 314 319 305 301 301 299 291 281 273 262 251 242 233 229 222 222
79 252 210 170 229 253 207 206 160 244 235 265 293 259 231 247 290 304 301 315 324 326 323 325 315 308 309 310 312 315 314 316 316 311 298 289 274 261 248 237 235 231 223 214
191 273 247 246 163 276 259 250 220 228 221 236 282 269 219 245 289 307 307 307 311 308 307 312 309 307 306 306 311 314 314 312 311 312 306 292 279 268 244 234 226 218 210 205
168 216 278 243 160 94 223 206 220 230 243 242 256 249 151 260 283 304 299 302 299 298 307 312 310 304 301 305 306 312 306 310 310 308 308 301 281 264 241 229 218 207 202 195
235 243 237 253 273 173 236 217 218 227 243 256 245 273 279 283 290 298 293 290 291 302 304 308 307 297 299 306 306 304 305 302 312 308 304 300 287 260 240 224 209 201 195 187
233 255 250 257 264 264 263 269 260 249 250 249 266 266 275 278 291 297 298 293 299 299 301 310 301 295 302 310 312 307 304 299 313 305 302 296 290 257 233 215 202 193 186 183
190 264 285 262 260 255 266 265 262 258 260 259 260 265 269 279 282 279 295 300 295 301 301 299 290 285 294 301 307 305 301 295 310 303 298 292 283 242 215 202 187 179 174 171
267 265 285 275 287 281 267 251 252 254 250 249 257 267 286 291 289 288 288 294 294 302 303 296 297 290 293 297 300 295 295 293 301 295 293 287 264 219 203 184 168 166 160 159
244 243 237 283 289 251 268 293 260 259 255 254 263 280 303 307 301 298 297 295 298 302 299 297 297 293 293 295 293 294 289 291 293 295 291 289 224 200 185 163 159 153 150 155
220 212 236 240 220 294 286 270 286 243 285 304 285 313 316 311 304 290 297 300 305 304 297 294 292 291 289 289 289 284 283 287 290 288 292 288 216 188 173 158 151 149 145 146
159 224 218 247 274 269 357 94 117 312 270 131 330 312 317 314 294 296 305 305 296 295 288 290 292 289 287 284 287 285 283 283 279 285 285 286 215 183 164 151 148 143 144 139
146 177 223 244 260 274 333 146 176 256 351 323 313 311 297 283 287 303 301 294 294 289 289 289 286 285 284 285 279 274 272 273 278 276 276 272 202 170 152 139 138 135 130 125
239 229 226 228 245 264 144 215 279 319 304 298 301 296 294 294 299 299 293 294 291 289 287 287 282 278 280 278 276 269 262 269 271 268 267 217 181 150 143 137 135 132 125 124
256 223 263 224 248 290 271 279 289 286 288 297 292 291 297 304 297 289 292 292 294 287 283 283 281 281 278 275 269 273 277 276 275 254 259 172 151 146 143 137 133 124 127 129
276 264 251 291 271 273 298 299 295 296 298 300 287 295 305 299 286 288 294 293 291 289 287 286 285 280 277 274 272 262 271 265 245 263 158 146 139 131 133 129 128 129 135 139
282 297 258 270 286 312 286 300 301 303 303 301 290 305 300 290 289 293 290 289 288 289 288 288 280 275 270 269 266 267 267 222 226 151 142 131 131 133 123 122 134 142 150 151
262 268 270 277 288 282 286 305 303 316 319 310 303 301 299 295 287 288 288 291 293 296 295 291 282 267 259 264 258 263 211 230 149 126 134 125 116 120 121 114 103 124 138 147